Orbital Elements at Epoch 2459200.5 (2020-Dec-17.0) TDB
Reference: JPL 15 (heliocentric ecliptic J2000)
Element | Value | Uncertainty (1-sigma) | Units |
e | .0700423892618848 | 6.8587e-08 | |
a | 3.150043188925451 | 3.2061e-08 | au |
q | 2.929406637694986 | 2.0412e-07 | au |
i | 10.84758927275643 | 8.5247e-06 | deg |
node | 43.44997589003567 | 2.6412e-05 | deg |
peri | 145.6327608488874 | 7.1521e-05 | deg |
M | 79.68988768738275 | 6.2451e-05 | deg |
tp | 2458748.463084073756 (2019-Sep-21.96308407) | 0.00035419 | TDB |
period | 2042.082056531912 5.59 | 3.1176e-05 8.536e-08 | d yr |
n | .1762906631731496 | 2.6914e-09 | deg/d |
Q | 3.370679740155917 | 3.4306e-08 | au |
|
| | Orbit Determination Parameters
Additional Information
|